[[{"header":{"parameterUnit":"m.s-1","parameterCategory":1,"la1":30.2991,"la2":30.254,"lo1":-89.0895,"lo2":-89.0444,"dy":0.0017,"dx":0.0017,"nx":28,"ny":28,"refTime":"2023-11-02T09:00:00:Z","depth":0,"parameterNumber":2,"parameterNumberName":"U-component_of_WINDS"},"data":[0,0,0,0,0,0,0,0,0,0,0,0,0,0,0,0,0,0,0,0,0,0,0,0,0,0,0,0,0,0,0,0,0,0,0,0,0,0,0,0,0,0,0,0,0,0,0,0,0,0,0,0,0,0,0,0,0,0,-6.3925,-6.3925,0,-6.3921,-6.3921,-6.3921,-6.3785,-6.3782,-6.3778,-6.3775,-6.3771,-6.3774,-6.3777,0,0,0,0,0,0,0,0,0,0,0,0,0,-6.3815,-6.3818,-6.3925,-6.3925,-6.3925,-6.3921,-6.3921,-6.3921,-6.3786,-6.3782,-6.3777,-6.3773,-6.377,-6.3774,-6.3778,0,0,0,0,0,0,0,0,0,0,0,0,0,-6.3842,-6.3818,-6.3925,-6.3857,-6.3851,-6.3921,-6.3921,-6.3921,-6.3787,-6.3781,-6.3776,-6.3771,-6.3769,-6.3774,-6.3778,-6.3914,0,0,-6.3793,-6.3795,0,0,0,0,0,0,0,0,-6.3841,-6.3846,-6.3867,-6.3862,-6.3855,-6.3848,-6.3881,-6.3919,-6.3788,-6.3811,-6.3775,-6.3769,-6.3801,-6.3803,-6.3814,-6.3914,-6.3914,-6.3793,-6.3796,-6.3798,-6.38,0,0,0,0,0,0,0,-6.3839,-6.3846,-6.3923,-6.3867,-6.386,-6.3827,-6.3825,-6.3888,-6.3836,-6.3809,-6.3799,-6.38,-6.3797,-6.381,-6.3813,-6.3914,-6.3793,-6.3798,-6.38,-6.3802,-6.4125,-6.4131,0,0,0,0,0,0,-6.3847,-6.3845,-6.3923,-6.3923,-6.3835,-6.3833,-6.3831,-6.3856,-6.3835,-6.3826,-6.3805,-6.3794,-6.3804,-6.3807,-6.3812,-6.3969,-6.3798,-6.3803,-6.3806,-6.4119,-6.4126,-6.4133,0,0,0,0,0,0,-6.3845,-6.3855,-6.3924,-6.3882,-6.3888,-6.384,-6.387,-6.3859,-6.3871,-6.3832,-6.3822,-6.3827,-6.38,-6.3805,-6.389,-6.3967,-6.3805,-6.3809,-6.4113,-6.4122,-6.4129,-6.4285,0,0,0,0,0,0,-6.3842,-6.3855,-6.3906,-6.3884,-6.3891,-6.4001,-6.3874,-6.3862,-6.388,-6.3865,-6.385,-6.3843,-6.3796,-6.3883,-6.3895,-6.3971,-6.3813,-6.4105,-6.4117,-6.4127,-6.4273,-6.4298,-6.4319,0,0,0,0,0,-6.3839,-6.3949,-6.3909,-6.3919,-6.3953,-6.4006,-6.401,-6.3954,-6.3887,-6.3937,-6.3912,-6.3843,-6.3958,-6.3893,-6.3905,-6.3984,-6.41,-6.4114,-6.4126,-6.4262,-6.4293,-6.4319,0,0,0,0,0,0,-6.3981,-6.3945,-6.39,-6.4007,-6.4011,-6.3983,-6.4045,-6.3988,-6.4011,-6.3997,-6.3927,-6.3925,-6.402,-6.401,-6.3939,-6.4114,-6.4017,-6.4033,-6.4117,-6.4145,-6.4168,-6.4168,-6.3817,0,0,0,0,0,-6.4025,-6.4071,-6.4037,-6.4135,-6.414,-6.4093,-6.4114,-6.4071,-6.4072,-6.4072,-6.4053,-6.4057,-6.4094,-6.4119,-6.4151,-6.4272,-6.4266,-6.4332,-6.4355,-6.4374,-6.4388,-6.4451,-6.448,-6.4175,-6.4175,-6.4174,0,0,-6.4116,-6.4102,-6.4135,-6.4164,-6.4161,-6.4211,-6.4095,-6.4152,-6.4188,-6.4081,-6.4159,-6.4146,-6.4146,-6.4249,-6.4293,-6.4244,-6.4472,-6.4391,-6.4406,-6.441,-6.4468,-6.4496,-6.4522,-6.4183,-6.4182,-6.418,0,0,-6.4307,-6.4301,-6.4382,-6.4383,-6.4381,-6.435,-6.437,-6.4351,-6.4338,-6.4416,-6.4337,-6.4379,-6.4444,-6.4447,-6.4457,-6.4652,-6.4589,-6.4665,-6.4785,-6.4848,-6.4872,-6.4893,-6.4962,-6.4987,-6.4679,-6.4679,-6.468,0,-6.4419,-6.4491,-6.4431,-6.4493,-6.4508,-6.4415,-6.4496,-6.45,-6.4509,-6.4522,-6.4466,-6.4546,-6.4539,-6.4642,-6.469,-6.4701,-6.4722,-6.4665,-6.4873,-6.4894,-6.4912,-6.4977,-6.5004,-6.4688,-6.4687,-6.4686,-6.4685,0,-6.4629,-6.468,-6.4746,-6.4757,-6.478,-6.4852,-6.4803,-6.4833,-6.4789,-6.4764,-6.4845,-6.4834,-6.4862,-6.4883,-6.4841,-6.4981,-6.495,-6.4886,-6.4786,-6.4952,-6.5011,-6.5036,-6.4701,-6.4698,-6.4695,-6.4693,0,0,-6.4907,-6.4886,-6.4911,-6.4915,-6.4908,-6.4946,-6.5015,-6.5042,-6.5069,-6.508,-6.5135,-6.5193,-6.5134,-6.5146,-6.5103,-6.5158,-6.5313,-6.5086,-6.5085,-6.5128,-6.5466,-6.5514,-6.5543,-6.5273,-6.5277,-6.5281,-6.5466,0,-6.509,-6.5205,-6.5154,-6.5274,-6.532,-6.5234,-6.5294,-6.5296,-6.5275,-6.5312,-6.5288,-6.533,-6.5249,-6.5255,-6.5307,-6.5283,-6.538,-6.527,-6.5323,-6.5325,-6.5324,-6.5574,-6.5624,-6.58,-6.5489,-6.5493,-6.5496,0,-6.5318,-6.5339,-6.5464,-6.545,-6.5467,-6.5522,-6.5543,-6.558,-6.5581,-6.5562,-6.5577,-6.5522,-6.5588,-6.5492,-6.5582,-6.5509,-6.5528,-6.552,-6.5526,-6.5527,-6.5419,-6.5581,-6.5854,-6.588,-6.5532,-6.5529,-6.5526,0,-6.5507,-6.5566,-6.5648,-6.5655,-6.5641,-6.5681,-6.5677,-6.5673,-6.5694,-6.5713,-6.5726,-6.5753,-6.5768,-6.5791,-6.5745,-6.5679,-6.5843,-6.5742,-6.5828,-6.583,-6.5864,-6.5862,-6.6143,-6.588,-6.588,-6.5879,-6.5879,0,-6.5716,-6.5796,-6.5733,-6.5784,-6.5871,-6.5812,-6.59,-6.5887,-6.5885,-6.5931,-6.5859,-6.5905,-6.5843,-6.5883,-6.5848,-6.5928,-6.5936,-6.5922,-6.5911,-6.5927,-6.5929,-6.5937,-6.5923,-6.5886,-6.5885,-6.5883,-6.5882,0,-6.594,-6.5901,-6.5985,-6.5965,-6.5962,-6.6028,-6.601,-6.6057,-6.6032,-6.6092,-6.6103,-6.6063,-6.6107,-6.6064,-6.6105,-6.6082,-6.6189,-6.6162,-6.6188,-6.618,-6.6268,-6.626,-6.6562,-6.6598,-6.6315,-6.6317,-6.632,0,-6.6074,-6.6134,-6.6121,-6.6147,-6.6148,-6.6191,-6.6212,-6.6158,-6.6182,-6.619,-6.6235,-6.6273,-6.6299,-6.6373,-6.6348,-6.6379,-6.6351,-6.6455,-6.6355,-6.6369,-6.6351,-6.6347,-6.6352,-6.6474,-6.6478,-6.648,-6.6483,0,-6.6318,-6.6296,-6.6329,-6.6356,-6.6383,-6.6401,-6.6414,-6.644,-6.6384,-6.6416,-6.6459,-6.648,-6.6522,-6.656,-6.6584,-6.658,-6.6523,-6.6515,-6.6536,-6.6552,-6.6564,-6.6558,-6.6242,-6.6507,-6.6505,-6.6503,-6.6502,-6.6501,-6.65,-6.6549,-6.6548,-6.6587,-6.6591,-6.6606,-6.6648,-6.6629,-6.6664,-6.6694,-6.6661,-6.6714,-6.6716,-6.6742,-6.6745,-6.6786,-6.6742,-6.6774,-6.6781,-6.6789,-6.6802,-6.656,-6.6791,-6.679,-6.6789,-6.6789,-6.6788,0,-6.6738,-6.6733,-6.677,-6.6791,-6.6823,-6.6767,-6.6779,-6.6809,-6.6857,-6.6863,-6.6891,-6.6942,-6.6979,-6.6959,-6.699,-6.7028,-6.7002,-6.7038,-6.7033,-6.7033,-6.684,-6.6817,-6.7058,-6.7058,-6.7058,-6.7058,-6.7058,-6.7058,-6.6865,-6.6945,-6.6924,-6.7006,-6.7,-6.7052,-6.7064,-6.7077,-6.7082,-6.7142,-6.7172,-6.7159,-6.7155,-6.7186,-6.7218,-6.7211,-6.7226,-6.7271,-6.7255,-6.7074,-6.7047,-6.7021,-6.7,-6.7275,-6.7275,-6.7444,-6.7446,-6.7447]},{"header":{"parameterUnit":"m.s-1","parameterCategory":1,"la1":30.2991,"la2":30.254,"lo1":-89.0895,"lo2":-89.0444,"dy":0.0017,"dx":0.0017,"nx":28,"ny":28,"refTime":"2023-11-02T09:00:00:Z","depth":0,"parameterNumber":3,"parameterNumberName":"V-component_of_WINDS"},"data":[0,0,0,0,0,0,0,0,0,0,0,0,0,0,0,0,0,0,0,0,0,0,0,0,0,0,0,0,0,0,0,0,0,0,0,0,0,0,0,0,0,0,0,0,0,0,0,0,0,0,0,0,0,0,0,0,0,0,0.187,0.187,0,0.1834,0.1834,0.1833,0.1844,0.1845,0.1846,0.1846,0.1805,0.1803,0.1801,0,0,0,0,0,0,0,0,0,0,0,0,0,0.1946,0.1945,0.187,0.187,0.1869,0.1834,0.1834,0.1833,0.1844,0.1845,0.1846,0.1847,0.1805,0.1803,0.1801,0,0,0,0,0,0,0,0,0,0,0,0,0,0.1912,0.1944,0.187,0.1871,0.187,0.1834,0.1834,0.1833,0.1844,0.1845,0.1846,0.1847,0.1806,0.1803,0.1801,0.176,0,0,0.1792,0.1791,0,0,0,0,0,0,0,0,0.1914,0.1909,0.1871,0.1871,0.187,0.1845,0.1845,0.1808,0.1844,0.1854,0.1847,0.1848,0.1817,0.1813,0.1804,0.1758,0.1757,0.1792,0.179,0.1789,0.1788,0,0,0,0,0,0,0,0.1916,0.191,0.1856,0.187,0.187,0.1872,0.1868,0.1838,0.1829,0.1853,0.1854,0.185,0.1817,0.1806,0.1803,0.1756,0.1792,0.179,0.1788,0.1787,0.1678,0.1677,0,0,0,0,0,0,0.1919,0.1912,0.1857,0.1855,0.1895,0.1869,0.1865,0.1852,0.1829,0.1827,0.1849,0.185,0.1811,0.1806,0.1801,0.1754,0.1789,0.1787,0.1785,0.1679,0.1678,0.1676,0,0,0,0,0,0,0.1921,0.1914,0.1858,0.1884,0.1877,0.1867,0.1851,0.185,0.184,0.1826,0.1824,0.184,0.1811,0.1805,0.1771,0.1753,0.1785,0.1783,0.1681,0.1679,0.1677,0.1658,0,0,0,0,0,0,0.1923,0.1915,0.19,0.1883,0.1875,0.1829,0.185,0.1849,0.1836,0.1838,0.1817,0.1815,0.1812,0.1775,0.1769,0.1749,0.1781,0.1682,0.168,0.1677,0.166,0.1656,0.1652,0,0,0,0,0,0.1925,0.1894,0.1899,0.1892,0.1857,0.1828,0.1824,0.1822,0.1834,0.1819,0.1811,0.1816,0.1756,0.1772,0.1764,0.1744,0.1683,0.168,0.1678,0.1662,0.1657,0.1652,0,0,0,0,0,0,0.1906,0.1892,0.1897,0.1859,0.1845,0.183,0.1811,0.1816,0.1796,0.1798,0.1795,0.1791,0.1756,0.1747,0.1764,0.1705,0.1721,0.1717,0.1712,0.1707,0.1703,0.1705,0.1778,0,0,0,0,0,0.1898,0.1877,0.1865,0.1834,0.1827,0.182,0.1807,0.1808,0.1792,0.1785,0.1774,0.1758,0.1736,0.1721,0.1699,0.1659,0.1655,0.1642,0.1638,0.1634,0.163,0.1609,0.1604,0.1667,0.1667,0.1667,0,0,0.1879,0.1869,0.1856,0.183,0.1819,0.1797,0.1815,0.179,0.1774,0.1781,0.1749,0.1741,0.1722,0.1686,0.1669,0.1676,0.1612,0.1631,0.1628,0.1626,0.1606,0.16,0.1595,0.1665,0.1665,0.1666,0,0,0.1835,0.1826,0.1799,0.1789,0.1773,0.1769,0.1763,0.1748,0.1743,0.1711,0.1717,0.1697,0.1658,0.1646,0.1634,0.1589,0.1593,0.1582,0.1559,0.1539,0.1534,0.153,0.1514,0.1508,0.1578,0.1578,0.1578,0,0.1814,0.1783,0.1784,0.176,0.1748,0.1757,0.173,0.1719,0.1696,0.1688,0.1698,0.1651,0.1639,0.16,0.159,0.158,0.1572,0.1583,0.1535,0.153,0.1526,0.1511,0.1505,0.1576,0.1577,0.1577,0.1577,0,0.1758,0.1736,0.1716,0.1697,0.1683,0.1657,0.1654,0.164,0.1642,0.1638,0.1606,0.1592,0.1569,0.156,0.1561,0.1522,0.1527,0.1536,0.1552,0.1519,0.1505,0.1499,0.1575,0.1575,0.1575,0.1576,0,0,0.1698,0.1682,0.1675,0.1667,0.1651,0.1634,0.1609,0.1589,0.1577,0.1562,0.154,0.1509,0.1518,0.1505,0.1505,0.1487,0.1453,0.1498,0.1498,0.149,0.141,0.1403,0.1396,0.1457,0.1455,0.1454,0.1411,0,0.1653,0.1611,0.1613,0.1573,0.1553,0.1563,0.1541,0.1529,0.1525,0.1507,0.1501,0.1479,0.1492,0.1485,0.1468,0.1461,0.1437,0.1464,0.1436,0.1435,0.144,0.1389,0.1381,0.1341,0.1406,0.1405,0.1404,0,0.1594,0.1579,0.1538,0.1528,0.152,0.15,0.1483,0.1466,0.1453,0.1451,0.1438,0.1441,0.1416,0.1434,0.1399,0.1418,0.1407,0.1401,0.14,0.1396,0.1417,0.1384,0.1328,0.1322,0.1395,0.1396,0.1397,0,0.1555,0.1525,0.1497,0.149,0.1477,0.1463,0.1457,0.1445,0.1434,0.1418,0.141,0.1391,0.1381,0.1366,0.1364,0.1377,0.1328,0.1346,0.1326,0.1326,0.1314,0.1314,0.1255,0.1307,0.1308,0.1308,0.1308,0,0.1503,0.1478,0.148,0.1462,0.1434,0.1437,0.1409,0.1404,0.1394,0.1375,0.1382,0.1364,0.1363,0.1345,0.1343,0.1315,0.1309,0.1307,0.1306,0.1306,0.1306,0.1298,0.13,0.1306,0.1306,0.1307,0.1307,0,0.1454,0.1454,0.1425,0.1416,0.1414,0.1393,0.1386,0.1369,0.1367,0.1343,0.1338,0.1333,0.1312,0.1309,0.1284,0.1283,0.1249,0.1252,0.1254,0.1254,0.1234,0.1235,0.1166,0.1158,0.1216,0.1215,0.1215,0,0.1421,0.1403,0.1393,0.1382,0.1376,0.1358,0.1347,0.135,0.1338,0.1323,0.1308,0.1289,0.1273,0.1239,0.1233,0.1214,0.1216,0.1193,0.1213,0.1213,0.1215,0.1217,0.1215,0.1189,0.1188,0.1187,0.1187,0,0.1363,0.1365,0.135,0.1335,0.1323,0.131,0.1299,0.129,0.1291,0.1277,0.1257,0.1245,0.1221,0.1201,0.1183,0.1176,0.1181,0.1181,0.1176,0.1174,0.1177,0.1175,0.1243,0.1182,0.1183,0.1183,0.1184,0.1184,0.1321,0.1306,0.1297,0.1281,0.1273,0.1263,0.1248,0.1245,0.1229,0.1211,0.1213,0.1191,0.118,0.1157,0.1148,0.1131,0.1138,0.1129,0.1127,0.1125,0.1123,0.118,0.1127,0.1127,0.1127,0.1127,0.1128,0,0.1264,0.126,0.1244,0.123,0.1217,0.1226,0.1215,0.1203,0.1184,0.1174,0.116,0.1138,0.1119,0.1113,0.1095,0.1082,0.1084,0.1077,0.1077,0.1076,0.1117,0.1124,0.1076,0.1076,0.1076,0.1076,0.1076,0.1076,0.1232,0.1207,0.1208,0.1179,0.1175,0.1155,0.1148,0.1139,0.1131,0.1107,0.1093,0.1089,0.1081,0.1063,0.1046,0.1045,0.1038,0.103,0.1029,0.1067,0.1073,0.1078,0.1084,0.1028,0.1028,0.0989,0.0989,0.0989]}]]